�v������,���r���O(���x),�����t���O,���r���O(���x),�����t���O,��1(���x),�����t���O,��2���x),�����t���O,�������x,�����t���O
8/1/2004 0:00,0,1,0,1,0,1,0,0,0,0
8/1/2004 0:15,0,1,0,1,0,1,0,0,0,0
8/1/2004 0:30,0,1,0,1,0,1,0,0,0,0
8/1/2004 0:45,0,1,0,1,0,1,0,0,0,0
8/1/2004 1:00,0,1,0,1,0,1,0,0,0,0
8/1/2004 1:15,0,1,0,1,0,1,0,0,0,0
8/1/2004 1:30,0,1,0,1,0,1,0,0,0,0
8/1/2004 1:45,0,1,0,1,0,1,0,0,0,0
8/1/2004 2:00,0,1,0,1,0,1,0,0,0,0
8/1/2004 2:15,0,1,0,1,0,1,0,0,0,0
8/1/2004 2:30,0,1,0,1,0,1,0,0,0,0
8/1/2004 2:45,0,1,0,1,0,1,0,0,0,0
8/1/2004 3:00,0,1,0,1,0,1,0,0,0,0
8/1/2004 3:15,0,1,0,1,0,1,0,0,0,0
8/1/2004 3:30,0,1,0,1,0,1,0,0,0,0
8/1/2004 3:45,0,1,0,1,0,1,0,0,0,0
8/1/2004 4:00,0,1,0,1,0,1,0,0,0,0
8/1/2004 4:15,0,1,0,1,0,1,0,0,0,0
8/1/2004 4:30,0,1,0,1,0,1,0,0,0,0
8/1/2004 4:45,0,1,0,1,0,1,0,0,0,0
8/1/2004 5:00,0,1,0,1,0,1,0,0,0,0
8/1/2004 5:15,0,1,0,1,0,1,0,0,0,0
8/1/2004 5:30,0,1,0,1,0,1,0,0,0,0
8/1/2004 5:45,0,1,0,1,0,1,0,0,0,0
8/1/2004 6:00,0,1,0,1,0,1,0,0,0,0
8/1/2004 6:15,0,1,0,1,0,1,0,0,0,0
8/1/2004 6:30,0,1,0,1,0,1,0,0,0,0
8/1/2004 6:45,0,1,0,1,0,1,0,0,0,0
8/1/2004 7:00,0,1,0,1,0,1,0,0,0,0
8/1/2004 7:15,0,1,0,1,0,1,0,0,0,0
8/1/2004 7:30,0,1,0,1,0,1,0,0,0,0
8/1/2004 7:45,0,1,0,1,0,1,0,0,0,0
8/1/2004 8:00,0,1,0,1,0,1,0,0,0,0
8/1/2004 8:15,0,1,0,1,0,1,0,0,0,0
8/1/2004 8:30,0,1,0,1,0,1,0,0,0,0
8/1/2004 8:45,0,1,0,1,0,1,0,0,0,0
8/1/2004 9:00,0,1,0,1,0,1,0,0,0,0
8/1/2004 9:15,0,1,0,1,0,1,0,0,0,0
8/1/2004 9:30,0,1,0,1,0,1,0,0,0,0
8/1/2004 9:45,0,1,0,1,0,1,0,0,0,0
8/1/2004 10:00,0,1,0,1,0,1,0,0,0,0
8/1/2004 10:15,0,1,0,1,0,1,0,0,0,0
8/1/2004 10:30,0,1,0,1,0,1,0,0,0,0
8/1/2004 10:45,0,1,0,1,0,1,0,0,0,0
8/1/2004 11:00,0,1,0,1,0,1,0,0,0,0
8/1/2004 11:15,0,1,0,1,0,1,0,0,0,0
8/1/2004 11:30,0,1,0,1,0,1,0,0,0,0
8/1/2004 11:45,0,1,0,1,0,1,0,0,0,0
8/1/2004 12:00,0,1,0,1,0,1,0,0,0,0
8/1/2004 12:15,0,1,0,1,0,1,0,0,0,0
8/1/2004 12:30,0,1,0,1,0,1,0,0,0,0
8/1/2004 12:45,0,1,0,1,0,1,0,0,0,0
8/1/2004 13:00,0,1,0,1,0,1,0,0,0,0
8/1/2004 13:15,0,1,0,1,0,1,0,0,0,0
8/1/2004 13:30,0,1,0,1,0,1,0,0,0,0
8/1/2004 13:45,0,1,0,1,0,1,0,0,0,0
8/1/2004 14:00,0,1,0,1,0,1,0,0,0,0
8/1/2004 14:15,0,1,0,1,0,1,0,0,0,0
8/1/2004 14:30,0,1,0,1,0,1,0,0,0,0
8/1/2004 14:45,0,1,0,1,0,1,0,0,0,0
8/1/2004 15:00,0,1,0,1,0,1,0,0,0,0
8/1/2004 15:15,0,1,0,1,0,1,0,0,0,0
8/1/2004 15:30,0,1,0,1,0,1,0,0,0,0
8/1/2004 15:45,0,1,0,1,0,1,0,0,0,0
8/1/2004 16:00,0,1,0,1,0,1,0,0,0,0
8/1/2004 16:15,0,1,0,1,0,1,0,0,0,0
8/1/2004 16:30,0,1,0,1,0,1,0,0,0,0
8/1/2004 16:45,0,1,0,1,0,1,0,0,0,0
8/1/2004 17:00,0,1,0,1,0,1,0,0,0,0
8/1/2004 17:15,0,1,0,1,0,1,0,0,0,0
8/1/2004 17:30,0,1,0,1,0,1,0,0,0,0
8/1/2004 17:45,0,1,0,1,0,1,0,0,0,0
8/1/2004 18:00,0,1,0,1,0,1,0,0,0,0
8/1/2004 18:15,0,1,0,1,0,1,0,0,0,0
8/1/2004 18:30,0,1,0,1,0,1,0,0,0,0
8/1/2004 18:45,0,1,0,1,0,1,0,0,0,0
8/1/2004 19:00,0,1,0,1,0,1,0,0,0,0
8/1/2004 19:15,0,1,0,1,0,1,0,0,0,0
8/1/2004 19:30,0,1,0,1,0,1,0,0,0,0
8/1/2004 19:45,0,1,0,1,0,1,0,0,0,0
8/1/2004 20:00,0,1,0,1,0,1,0,0,0,0
8/1/2004 20:15,0,1,0,1,0,1,0,0,0,0
8/1/2004 20:30,0,1,0,1,0,1,0,0,0,0
8/1/2004 20:45,0,1,0,1,0,1,0,0,0,0
8/1/2004 21:00,0,1,0,1,0,1,0,0,0,0
8/1/2004 21:15,0,1,0,1,0,1,0,0,0,0
8/1/2004 21:30,0,1,0,1,0,1,0,0,0,0
8/1/2004 21:45,0,1,0,1,0,1,0,0,0,0
8/1/2004 22:00,0,1,0,1,0,1,0,0,0,0
8/1/2004 22:15,0,1,0,1,0,1,0,0,0,0
8/1/2004 22:30,0,1,0,1,0,1,0,0,0,0
8/1/2004 22:45,0,1,0,1,0,1,0,0,0,0
8/1/2004 23:00,0,1,0,1,0,1,0,0,0,0
8/1/2004 23:15,0,1,0,1,0,1,0,0,0,0
8/1/2004 23:30,0,1,0,1,0,1,0,0,0,0
8/1/2004 23:45,0,1,0,1,0,1,0,0,0,0
8/2/2004 0:00,0,1,0,1,0,1,0,0,0,0
8/2/2004 0:15,0,1,0,1,0,1,0,0,0,0
8/2/2004 0:30,0,1,0,1,0,1,0,0,0,0
8/2/2004 0:45,0,1,0,1,0,1,0,0,0,0
8/2/2004 1:00,0,1,0,1,0,1,0,0,0,0
8/2/2004 1:15,0,1,0,1,0,1,0,0,0,0
8/2/2004 1:30,0,1,0,1,0,1,0,0,0,0
8/2/2004 1:45,0,1,0,1,0,1,0,0,0,0
8/2/2004 2:00,0,1,0,1,0,1,0,0,0,0
8/2/2004 2:15,0,1,0,1,0,1,0,0,0,0
8/2/2004 2:30,0,1,0,1,0,1,0,0,0,0
8/2/2004 2:45,0,1,0,1,0,1,0,0,0,0
8/2/2004 3:00,0,1,0,1,0,1,0,0,0,0
8/2/2004 3:15,0,1,0,1,0,1,0,0,0,0
8/2/2004 3:30,0,1,0,1,0,1,0,0,0,0
8/2/2004 3:45,0,1,0,1,0,1,0,0,0,0
8/2/2004 4:00,0,1,0,1,0,1,0,0,0,0
8/2/2004 4:15,0,1,0,1,0,1,0,0,0,0
8/2/2004 4:30,0,1,0,1,0,1,0,0,0,0
8/2/2004 4:45,0,1,0,1,0,1,0,0,0,0
8/2/2004 5:00,0,1,0,1,0,1,0,0,0,0
8/2/2004 5:15,0,1,0,1,0,1,0,0,0,0
8/2/2004 5:30,0,1,0,1,0,1,0,0,0,0
8/2/2004 5:45,0,1,0,1,0,1,0,0,0,0
8/2/2004 6:00,0,1,0,1,0,1,0,0,0,0
8/2/2004 6:15,0,1,0,1,0,1,0,0,0,0
8/2/2004 6:30,0,1,0,1,0,1,0,0,0,0
8/2/2004 6:45,0,1,0,1,0,1,0,0,0,0
8/2/2004 7:00,0,1,0,1,0,1,0,0,0,0
8/2/2004 7:15,0,1,0,1,0,1,0,0,0,0
8/2/2004 7:30,0,1,0,1,0,1,0,0,0,0
8/2/2004 7:45,0,1,0,1,0,1,0,0,0,0
8/2/2004 8:00,0,1,0,1,0,1,0,0,0,0
8/2/2004 8:15,0,1,0,1,0,1,0,0,0,0
8/2/2004 8:30,0,1,0,1,0,1,0,0,0,0
8/2/2004 8:45,0,1,0,1,0,1,0,0,0,0
8/2/2004 9:00,0,1,0,1,0,1,0,0,0,0
8/2/2004 9:15,0,1,0,1,0,1,0,0,0,0
8/2/2004 9:30,0,1,0,1,0,1,0,0,0,0
8/2/2004 9:45,0,1,0,1,0,1,0,0,0,0
8/2/2004 10:00,0,1,0,1,0,1,0,0,0,0
8/2/2004 10:15,0,1,0,1,0,1,0,0,0,0
8/2/2004 10:30,0,1,0,1,0,1,0,0,0,0
8/2/2004 10:45,0,1,0,1,0,1,0,0,0,0
8/2/2004 11:00,0,1,0,1,0,1,0,0,0,0
8/2/2004 11:15,0,1,0,1,0,1,0,0,0,0
8/2/2004 11:30,0,1,0,1,0,1,0,0,0,0
8/2/2004 11:45,0,1,0,1,0,1,0,0,0,0
8/2/2004 12:00,0,1,0,1,0,1,0,0,0,0
8/2/2004 12:15,0,1,0,1,0,1,0,0,0,0
8/2/2004 12:30,0,1,0,1,0,1,0,0,0,0
8/2/2004 12:45,0,1,0,1,0,1,0,0,0,0
8/2/2004 13:00,0,1,0,1,0,1,0,0,0,0
8/2/2004 13:15,0,1,0,1,0,1,0,0,0,0
8/2/2004 13:30,0,1,0,1,0,1,0,0,0,0
8/2/2004 13:45,0,1,0,1,0,1,0,0,0,0
8/2/2004 14:00,0,1,0,1,0,1,0,0,0,0
8/2/2004 14:15,0,1,0,1,0,1,0,0,0,0
8/2/2004 14:30,0,1,0,1,0,1,0,0,0,0
8/2/2004 14:45,0,1,0,1,0,1,0,0,0,0
8/2/2004 15:00,0,1,0,1,0,1,0,0,0,0
8/2/2004 15:15,0,1,0,1,0,1,0,0,0,0
8/2/2004 15:30,0,1,0,1,0,1,0,0,0,0
8/2/2004 15:45,0,1,0,1,0,1,0,0,0,0
8/2/2004 16:00,0,1,0,1,0,1,0,0,0,0
8/2/2004 16:15,0,1,0,1,0,1,0,0,0,0
8/2/2004 16:30,0,1,0,1,0,1,0,0,0,0
8/2/2004 16:45,0,1,0,1,0,1,0,0,0,0
8/2/2004 17:00,0,1,0,1,0,1,0,0,0,0
8/2/2004 17:15,0,1,0,1,0,1,0,0,0,0
8/2/2004 17:30,0,1,0,1,0,1,0,0,0,0
8/2/2004 17:45,0,1,0,1,0,1,0,0,0,0
8/2/2004 18:00,0,1,0,1,0,1,0,0,0,0
8/2/2004 18:15,0,1,0,1,0,1,0,0,0,0
8/2/2004 18:30,0,1,0,1,0,1,0,0,0,0
8/2/2004 18:45,0,1,0,1,0,1,0,0,0,0
8/2/2004 19:00,0,1,0,1,0,1,0,0,0,0
8/2/2004 19:15,0,1,0,1,0,1,0,0,0,0
8/2/2004 19:30,0,1,0,1,0,1,0,0,0,0
8/2/2004 19:45,0,1,0,1,0,1,0,0,0,0
8/2/2004 20:00,0,1,0,1,0,1,0,0,0,0
8/2/2004 20:15,0,1,0,1,0,1,0,0,0,0
8/2/2004 20:30,0,1,0,1,0,1,0,0,0,0
8/2/2004 20:45,0,1,0,1,0,1,0,0,0,0
8/2/2004 21:00,0,1,0,1,0,1,0,0,0,0
8/2/2004 21:15,0,1,0,1,0,1,0,0,0,0
8/2/2004 21:30,0,1,0,1,0,1,0,0,0,0
8/2/2004 21:45,0,1,0,1,0,1,0,0,0,0
8/2/2004 22:00,0,1,0,1,0,1,0,0,0,0
8/2/2004 22:15,0,1,0,1,0,1,0,0,0,0
8/2/2004 22:30,0,1,0,1,0,1,0,0,0,0
8/2/2004 22:45,0,1,0,1,0,1,0,0,0,0
8/2/2004 23:00,0,1,0,1,0,1,0,0,0,0
8/2/2004 23:15,0,1,0,1,0,1,0,0,0,0
8/2/2004 23:30,0,1,0,1,0,1,0,0,0,0
8/2/2004 23:45,0,1,0,1,0,1,0,0,0,0
8/3/2004 0:00,0,1,0,1,0,1,0,0,0,0
8/3/2004 0:15,0,1,0,1,0,1,0,0,0,0
8/3/2004 0:30,0,1,0,1,0,1,0,0,0,0
8/3/2004 0:45,0,1,0,1,0,1,0,0,0,0
8/3/2004 1:00,0,1,0,1,0,1,0,0,0,0
8/3/2004 1:15,0,1,0,1,0,1,0,0,0,0
8/3/2004 1:30,0,1,0,1,0,1,0,0,0,0
8/3/2004 1:45,0,1,0,1,0,1,0,0,0,0
8/3/2004 2:00,0,1,0,1,0,1,0,0,0,0
8/3/2004 2:15,0,1,0,1,0,1,0,0,0,0
8/3/2004 2:30,0,1,0,1,0,1,0,0,0,0
8/3/2004 2:45,0,1,0,1,0,1,0,0,0,0
8/3/2004 3:00,0,1,0,1,0,1,0,0,0,0
8/3/2004 3:15,0,1,0,1,0,1,0,0,0,0
8/3/2004 3:30,0,1,0,1,0,1,0,0,0,0
8/3/2004 3:45,0,1,0,1,0,1,0,0,0,0
8/3/2004 4:00,0,1,0,1,0,1,0,0,0,0
8/3/2004 4:15,0,1,0,1,0,1,0,0,0,0
8/3/2004 4:30,0,1,0,1,0,1,0,0,0,0
8/3/2004 4:45,0,1,0,1,0,1,0,0,0,0
8/3/2004 5:00,0,1,0,1,0,1,0,0,0,0
8/3/2004 5:15,0,1,0,1,0,1,0,0,0,0
8/3/2004 5:30,0,1,0,1,0,1,0,0,0,0
8/3/2004 5:45,0,1,0,1,0,1,0,0,0,0
8/3/2004 6:00,0,1,0,1,0,1,0,0,0,0
8/3/2004 6:15,0,1,0,1,0,1,0,0,0,0
8/3/2004 6:30,0,1,0,1,0,1,0,0,0,0
8/3/2004 6:45,0,1,0,1,0,1,0,0,0,0
8/3/2004 7:00,0,1,0,1,0,1,0,0,0,0
8/3/2004 7:15,0,1,0,1,0,1,0,0,0,0
8/3/2004 7:30,0,1,0,1,0,1,0,0,0,0
8/3/2004 7:45,0,1,0,1,0,1,0,0,0,0
8/3/2004 8:00,0,1,0,1,0,1,0,0,0,0
8/3/2004 8:15,0,1,0,1,0,1,0,0,0,0
8/3/2004 8:30,0,1,0,1,0,1,0,0,0,0
8/3/2004 8:45,0,1,0,1,0,1,0,0,0,0
8/3/2004 9:00,0,1,0,1,0,1,0,0,0,0
8/3/2004 9:15,0,1,0,1,0,1,0,0,0,0
8/3/2004 9:30,0,1,0,1,0,1,0,0,0,0
8/3/2004 9:45,0,1,0,1,0,1,0,0,0,0
8/3/2004 10:00,0,1,0,1,0,1,0,0,0,0
8/3/2004 10:15,0,1,0,1,0,1,0,0,0,0
8/3/2004 10:30,0,1,0,1,0,1,0,0,0,0
8/3/2004 10:45,0,1,0,1,0,1,0,0,0,0
8/3/2004 11:00,0,1,0,1,0,1,0,0,0,0
8/3/2004 11:15,0,1,0,1,0,1,0,0,0,0
8/3/2004 11:30,0,1,0,1,0,1,0,0,0,0
8/3/2004 11:45,0,1,0,1,0,1,0,0,0,0
8/3/2004 12:00,0,1,0,1,0,1,0,0,0,0
8/3/2004 12:15,0,1,0,1,0,1,0,0,0,0
8/3/2004 12:30,0,1,0,1,0,1,0,0,0,0
8/3/2004 12:45,0,1,0,1,0,1,0,0,0,0
8/3/2004 13:00,0,1,0,1,0,1,0,0,0,0
8/3/2004 13:15,0,1,0,1,0,1,0,0,0,0
8/3/2004 13:30,0,1,0,1,0,1,0,0,0,0
8/3/2004 13:45,0,1,0,1,0,1,0,0,0,0
8/3/2004 14:00,0,1,0,1,0,1,0,0,0,0
8/3/2004 14:15,0,1,0,1,0,1,0,0,0,0
8/3/2004 14:30,0,1,0,1,0,1,0,0,0,0
8/3/2004 14:45,0,1,0,1,0,1,0,0,0,0
8/3/2004 15:00,0,1,0,1,0,1,0,0,0,0
8/3/2004 15:15,0,1,0,1,0,1,0,0,0,0
8/3/2004 15:30,0,1,0,1,0,1,0,0,0,0
8/3/2004 15:45,0,1,0,1,0,1,0,0,0,0
8/3/2004 16:00,0,1,0,1,0,1,0,0,0,0
8/3/2004 16:15,0,1,0,1,0,1,0,0,0,0
8/3/2004 16:30,0,1,0,1,0,1,0,0,0,0
8/3/2004 16:45,0,1,0,1,0,1,0,0,0,0
8/3/2004 17:00,0,1,0,1,0,1,0,0,0,0
8/3/2004 17:15,0,1,0,1,0,1,0,0,0,0
8/3/2004 17:30,0,1,0,1,0,1,0,0,0,0
8/3/2004 17:45,0,1,0,1,0,1,0,0,0,0
8/3/2004 18:00,0,1,0,1,0,1,0,0,0,0
8/3/2004 18:15,0,1,0,1,0,1,0,0,0,0
8/3/2004 18:30,0,1,0,1,0,1,0,0,0,0
8/3/2004 18:45,0,1,0,1,0,1,0,0,0,0
8/3/2004 19:00,0,1,0,1,0,1,0,0,0,0
8/3/2004 19:15,0,1,0,1,0,1,0,0,0,0
8/3/2004 19:30,0,1,0,1,0,1,0,0,0,0
8/3/2004 19:45,0,1,0,1,0,1,0,0,0,0
8/3/2004 20:00,0,1,0,1,0,1,0,0,0,0
8/3/2004 20:15,0,1,0,1,0,1,0,0,0,0
8/3/2004 20:30,0,1,0,1,0,1,0,0,0,0
8/3/2004 20:45,0,1,0,1,0,1,0,0,0,0
8/3/2004 21:00,0,1,0,1,0,1,0,0,0,0
8/3/2004 21:15,0,1,0,1,0,1,0,0,0,0
8/3/2004 21:30,0,1,0,1,0,1,0,0,0,0
8/3/2004 21:45,0,1,0,1,0,1,0,0,0,0
8/3/2004 22:00,0,1,0,1,0,1,0,0,0,0
8/3/2004 22:15,0,1,0,1,0,1,0,0,0,0
8/3/2004 22:30,0,1,0,1,0,1,0,0,0,0
8/3/2004 22:45,0,1,0,1,0,1,0,0,0,0
8/3/2004 23:00,0,1,0,1,0,1,0,0,0,0
8/3/2004 23:15,0,1,0,1,0,1,0,0,0,0
8/3/2004 23:30,0,1,0,1,0,1,0,0,0,0
8/3/2004 23:45,0,1,0,1,0,1,0,0,0,0
8/4/2004 0:00,0,1,0,1,0,1,0,0,0,0
8/4/2004 0:15,0,1,0,1,0,1,0,0,0,0
8/4/2004 0:30,0,1,0,1,0,1,0,0,0,0
8/4/2004 0:45,0,1,0,1,0,1,0,0,0,0
8/4/2004 1:00,0,1,0,1,0,1,0,0,0,0
8/4/2004 1:15,0,1,0,1,0,1,0,0,0,0
8/4/2004 1:30,0,1,0,1,0,1,0,0,0,0
8/4/2004 1:45,0,1,0,1,0,1,0,0,0,0
8/4/2004 2:00,0,1,0,1,0,1,0,0,0,0
8/4/2004 2:15,0,1,0,1,0,1,0,0,0,0
8/4/2004 2:30,0,1,0,1,0,1,0,0,0,0
8/4/2004 2:45,0,1,0,1,0,1,0,0,0,0
8/4/2004 3:00,0,1,0,1,0,1,0,0,0,0
8/4/2004 3:15,0,1,0,1,0,1,0,0,0,0
8/4/2004 3:30,0,1,0,1,0,1,0,0,0,0
8/4/2004 3:45,0,1,0,1,0,1,0,0,0,0
8/4/2004 4:00,0,1,0,1,0,1,0,0,0,0
8/4/2004 4:15,0,1,0,1,0,1,0,0,0,0
8/4/2004 4:30,0,1,0,1,0,1,0,0,0,0
8/4/2004 4:45,0,1,0,1,0,1,0,0,0,0
8/4/2004 5:00,0,1,0,1,0,1,0,0,0,0
8/4/2004 5:15,0,1,0,1,0,1,0,0,0,0
8/4/2004 5:30,0,1,0,1,0,1,0,0,0,0
8/4/2004 5:45,0,1,0,1,0,1,0,0,0,0
8/4/2004 6:00,0,1,0,1,0,1,0,0,0,0
8/4/2004 6:15,0,1,0,1,0,1,0,0,0,0
8/4/2004 6:30,0,1,0,1,0,1,0,0,0,0
8/4/2004 6:45,0,1,0,1,0,1,0,0,0,0
8/4/2004 7:00,0,1,0,1,0,1,0,0,0,0
8/4/2004 7:15,0,1,0,1,0,1,0,0,0,0
8/4/2004 7:30,0,1,0,1,0,1,0,0,0,0
8/4/2004 7:45,0,1,0,1,0,1,0,0,0,0
8/4/2004 8:00,0,1,0,1,0,1,0,0,0,0
8/4/2004 8:15,0,1,0,1,0,1,0,0,0,0
8/4/2004 8:30,0,1,0,1,0,1,0,0,0,0
8/4/2004 8:45,0,1,0,1,0,1,0,0,0,0
8/4/2004 9:00,0,1,0,1,0,1,0,0,0,0
8/4/2004 9:15,0,1,0,1,0,1,0,0,0,0
8/4/2004 9:30,0,1,0,1,0,1,0,0,0,0
8/4/2004 9:45,0,1,0,1,0,1,0,0,0,0
8/4/2004 10:00,0,1,0,1,0,1,0,0,0,0
8/4/2004 10:15,0,1,0,1,0,1,0,0,0,0
8/4/2004 10:30,0,1,0,1,0,1,0,0,0,0
8/4/2004 10:45,0,1,0,1,0,1,0,0,0,0
8/4/2004 11:00,0,1,0,1,0,1,0,0,0,0
8/4/2004 11:15,0,1,0,1,0,1,0,0,0,0
8/4/2004 11:30,0,1,0,1,0,1,0,0,0,0
8/4/2004 11:45,0,1,0,1,0,1,0,0,0,0
8/4/2004 12:00,0,1,0,1,0,1,0,0,0,0
8/4/2004 12:15,0,1,0,1,0,1,0,0,0,0
8/4/2004 12:30,0,1,0,1,0,1,0,0,0,0
8/4/2004 12:45,0,1,0,1,0,1,0,0,0,0
8/4/2004 13:00,0,1,0,1,0,1,0,0,0,0
8/4/2004 13:15,0,1,0,1,0,1,0,0,0,0
8/4/2004 13:30,0,1,0,1,0,1,0,0,0,0
8/4/2004 13:45,0,1,0,1,0,1,0,0,0,0
8/4/2004 14:00,0,1,0,1,0,1,0,0,0,0
8/4/2004 14:15,0,1,0,1,0,1,0,0,0,0
8/4/2004 14:30,0,1,0,1,0,1,0,0,0,0
8/4/2004 14:45,0,1,0,1,0,1,0,0,0,0
8/4/2004 15:00,0,1,0,1,0,1,0,0,0,0
8/4/2004 15:15,0,1,0,1,0,1,0,0,0,0
8/4/2004 15:30,0,1,0,1,0,1,0,0,0,0
8/4/2004 15:45,0,1,0,1,0,1,0,0,0,0
8/4/2004 16:00,0,1,0,1,0,1,0,0,0,0
8/4/2004 16:15,0,1,0,1,0,1,0,0,0,0
8/4/2004 16:30,0,1,0,1,0,1,0,0,0,0
8/4/2004 16:45,0,1,0,1,0,1,0,0,0,0
8/4/2004 17:00,0,1,0,1,0,1,0,0,0,0
8/4/2004 17:15,0,1,0,1,0,1,0,0,0,0
8/4/2004 17:30,0,1,0,1,0,1,0,0,0,0
8/4/2004 17:45,0,1,0,1,0,1,0,0,0,0
8/4/2004 18:00,0,1,0,1,0,1,0,0,0,0
8/4/2004 18:15,0,1,0,1,0,1,0,0,0,0
8/4/2004 18:30,0,1,0,1,0,1,0,0,0,0
8/4/2004 18:45,0,1,0,1,0,1,0,0,0,0
8/4/2004 19:00,0,1,0,1,0,1,0,0,0,0
8/4/2004 19:15,0,1,0,1,0,1,0,0,0,0
8/4/2004 19:30,0,1,0,1,0,1,0,0,0,0
8/4/2004 19:45,0,1,0,1,0,1,0,0,0,0
8/4/2004 20:00,0,1,0,1,0,1,0,0,0,0
8/4/2004 20:15,0,1,0,1,0,1,0,0,0,0
8/4/2004 20:30,0,1,0,1,0,1,0,0,0,0
8/4/2004 20:45,0,1,0,1,0,1,0,0,0,0
8/4/2004 21:00,0,1,0,1,0,1,0,0,0,0
8/4/2004 21:15,0,1,0,1,0,1,0,0,0,0
8/4/2004 21:30,0,1,0,1,0,1,0,0,0,0
8/4/2004 21:45,0,1,0,1,0,1,0,0,0,0
8/4/2004 22:00,0,1,0,1,0,1,0,0,0,0
8/4/2004 22:15,0,1,0,1,0,1,0,0,0,0
8/4/2004 22:30,0,1,0,1,0,1,0,0,0,0
8/4/2004 22:45,0,1,0,1,0,1,0,0,0,0
8/4/2004 23:00,0,1,0,1,0,1,0,0,0,0
8/4/2004 23:15,0,1,0,1,0,1,0,0,0,0
8/4/2004 23:30,0,1,0,1,0,1,0,0,0,0
8/4/2004 23:45,0,1,0,1,0,1,0,0,0,0
8/5/2004 0:00,0,1,0,1,0,1,0,0,0,0
8/5/2004 0:15,0,1,0,1,0,1,0,0,0,0
8/5/2004 0:30,0,1,0,1,0,1,0,0,0,0
8/5/2004 0:45,0,1,0,1,0,1,0,0,0,0
8/5/2004 1:00,0,1,0,1,0,1,0,0,0,0
8/5/2004 1:15,0,1,0,1,0,1,0,0,0,0
8/5/2004 1:30,0,1,0,1,0,1,0,0,0,0
8/5/2004 1:45,0,1,0,1,0,1,0,0,0,0
8/5/2004 2:00,0,1,0,1,0,1,0,0,0,0
8/5/2004 2:15,0,1,0,1,0,1,0,0,0,0
8/5/2004 2:30,0,1,0,1,0,1,0,0,0,0
8/5/2004 2:45,0,1,0,1,0,1,0,0,0,0
8/5/2004 3:00,0,1,0,1,0,1,0,0,0,0
8/5/2004 3:15,0,1,0,1,0,1,0,0,0,0
8/5/2004 3:30,0,1,0,1,0,1,0,0,0,0
8/5/2004 3:45,0,1,0,1,0,1,0,0,0,0
8/5/2004 4:00,0,1,0,1,0,1,0,0,0,0
8/5/2004 4:15,0,1,0,1,0,1,0,0,0,0
8/5/2004 4:30,0,1,0,1,0,1,0,0,0,0
8/5/2004 4:45,0,1,0,1,0,1,0,0,0,0
8/5/2004 5:00,0,1,0,1,0,1,0,0,0,0
8/5/2004 5:15,0,1,0,1,0,1,0,0,0,0
8/5/2004 5:30,0,1,0,1,0,1,0,0,0,0
8/5/2004 5:45,0,1,0,1,0,1,0,0,0,0
8/5/2004 6:00,0,1,0,1,0,1,0,0,0,0
8/5/2004 6:15,0,1,0,1,0,1,0,0,0,0
8/5/2004 6:30,0,1,0,1,0,1,0,0,0,0
8/5/2004 6:45,0,1,0,1,0,1,0,0,0,0
8/5/2004 7:00,0,1,0,1,0,1,0,0,0,0
8/5/2004 7:15,0,1,0,1,0,1,0,0,0,0
8/5/2004 7:30,0,1,0,1,0,1,0,0,0,0
8/5/2004 7:45,0,1,0,1,0,1,0,0,0,0
8/5/2004 8:00,0,1,0,1,0,1,0,0,0,0
8/5/2004 8:15,0,1,0,1,0,1,0,0,0,0
8/5/2004 8:30,0,1,0,1,0,1,0,0,0,0
8/5/2004 8:45,0,1,0,1,0,1,0,0,0,0
8/5/2004 9:00,0,1,0,1,0,1,0,0,0,0
8/5/2004 9:15,0,1,0,1,0,1,0,0,0,0
8/5/2004 9:30,0,1,0,1,0,1,0,0,0,0
8/5/2004 9:45,0,1,0,1,0,1,0,0,0,0
8/5/2004 10:00,0,1,0,1,0,1,0,0,0,0
8/5/2004 10:15,0,1,0,1,0,1,0,0,0,0
8/5/2004 10:30,0,1,0,1,0,1,0,0,0,0
8/5/2004 10:45,0,1,0,1,0,1,0,0,0,0
8/5/2004 11:00,0,1,0,1,0,1,0,0,0,0
8/5/2004 11:15,0,1,0,1,0,1,0,0,0,0
8/5/2004 11:30,0,1,0,1,0,1,0,0,0,0
8/5/2004 11:45,0,1,0,1,0,1,0,0,0,0
8/5/2004 12:00,0,1,0,1,0,1,0,0,0,0
8/5/2004 12:15,0,1,0,1,0,1,0,0,0,0
8/5/2004 12:30,0,1,0,1,0,1,0,0,0,0
8/5/2004 12:45,0,1,0,1,0,1,0,0,0,0
8/5/2004 13:00,0,1,0,1,0,1,0,0,0,0
8/5/2004 13:15,0,1,0,1,0,1,0,0,0,0
8/5/2004 13:30,0,1,0,1,0,1,0,0,0,0
8/5/2004 13:45,0,1,0,1,0,1,0,0,0,0
8/5/2004 14:00,0,1,0,1,0,1,0,0,0,0
8/5/2004 14:15,0,1,0,1,0,1,0,0,0,0
8/5/2004 14:30,0,1,0,1,0,1,0,0,0,0
8/5/2004 14:45,0,1,0,1,0,1,0,0,0,0
8/5/2004 15:00,0,1,0,1,0,1,0,0,0,0
8/5/2004 15:15,0,1,0,1,0,1,0,0,0,0
8/5/2004 15:30,0,1,0,1,0,1,0,0,0,0
8/5/2004 15:45,0,1,0,1,0,1,0,0,0,0
8/5/2004 16:00,0,1,0,1,0,1,0,0,0,0
8/5/2004 16:15,0,1,0,1,0,1,0,0,0,0
8/5/2004 16:30,0,1,0,1,0,1,0,0,0,0
8/5/2004 16:45,0,1,0,1,0,1,0,0,0,0
8/5/2004 17:00,0,1,0,1,0,1,0,0,0,0
8/5/2004 17:15,0,1,0,1,0,1,0,0,0,0
8/5/2004 17:30,0,1,0,1,0,1,0,0,0,0
8/5/2004 17:45,0,1,0,1,0,1,0,0,0,0
8/5/2004 18:00,0,1,0,1,0,1,0,0,0,0
8/5/2004 18:15,0,1,0,1,0,1,0,0,0,0
8/5/2004 18:30,0,1,0,1,0,1,0,0,0,0
8/5/2004 18:45,0,1,0,1,0,1,0,0,0,0
8/5/2004 19:00,0,1,0,1,0,1,0,0,0,0
8/5/2004 19:15,0,1,0,1,0,1,0,0,0,0
8/5/2004 19:30,0,1,0,1,0,1,0,0,0,0
8/5/2004 19:45,0,1,0,1,0,1,0,0,0,0
8/5/2004 20:00,0,1,0,1,0,1,0,0,0,0
8/5/2004 20:15,0,1,0,1,0,1,0,0,0,0
8/5/2004 20:30,0,1,0,1,0,1,0,0,0,0
8/5/2004 20:45,0,1,0,1,0,1,0,0,0,0
8/5/2004 21:00,0,1,0,1,0,1,0,0,0,0
8/5/2004 21:15,0,1,0,1,0,1,0,0,0,0
8/5/2004 21:30,0,1,0,1,0,1,0,0,0,0
8/5/2004 21:45,0,1,0,1,0,1,0,0,0,0
8/5/2004 22:00,0,1,0,1,0,1,0,0,0,0
8/5/2004 22:15,0,1,0,1,0,1,0,0,0,0
8/5/2004 22:30,0,1,0,1,0,1,0,0,0,0
8/5/2004 22:45,0,1,0,1,0,1,0,0,0,0
8/5/2004 23:00,0,1,0,1,0,1,0,0,0,0
8/5/2004 23:15,0,1,0,1,0,1,0,0,0,0
8/5/2004 23:30,0,1,0,1,0,1,0,0,0,0
8/5/2004 23:45,0,1,0,1,0,1,0,0,0,0
8/6/2004 0:00,0,1,0,1,0,1,0,0,0,0
8/6/2004 0:15,0,1,0,1,0,1,0,0,0,0
8/6/2004 0:30,0,1,0,1,0,1,0,0,0,0
8/6/2004 0:45,0,1,0,1,0,1,0,0,0,0
8/6/2004 1:00,0,1,0,1,0,1,0,0,0,0
8/6/2004 1:15,0,1,0,1,0,1,0,0,0,0
8/6/2004 1:30,0,1,0,1,0,1,0,0,0,0
8/6/2004 1:45,0,1,0,1,0,1,0,0,0,0
8/6/2004 2:00,0,1,0,1,0,1,0,0,0,0
8/6/2004 2:15,0,1,0,1,0,1,0,0,0,0
8/6/2004 2:30,0,1,0,1,0,1,0,0,0,0
8/6/2004 2:45,0,1,0,1,0,1,0,0,0,0
8/6/2004 3:00,0,1,0,1,0,1,0,0,0,0
8/6/2004 3:15,0,1,0,1,0,1,0,0,0,0
8/6/2004 3:30,0,1,0,1,0,1,0,0,0,0
8/6/2004 3:45,0,1,0,1,0,1,0,0,0,0
8/6/2004 4:00,0,1,0,1,0,1,0,0,0,0
8/6/2004 4:15,0,1,0,1,0,1,0,0,0,0
8/6/2004 4:30,0,1,0,1,0,1,0,0,0,0
8/6/2004 4:45,0,1,0,1,0,1,0,0,0,0
8/6/2004 5:00,0,1,0,1,0,1,0,0,0,0
8/6/2004 5:15,0,1,0,1,0,1,0,0,0,0
8/6/2004 5:30,0,1,0,1,0,1,0,0,0,0
8/6/2004 5:45,0,1,0,1,0,1,0,0,0,0
8/6/2004 6:00,0,1,0,1,0,1,0,0,0,0
8/6/2004 6:15,0,1,0,1,0,1,0,0,0,0
8/6/2004 6:30,0,1,0,1,0,1,0,0,0,0
8/6/2004 6:45,0,1,0,1,0,1,0,0,0,0
8/6/2004 7:00,0,1,0,1,0,1,0,0,0,0
8/6/2004 7:15,0,1,0,1,0,1,0,0,0,0
8/6/2004 7:30,0,1,0,1,0,1,0,0,0,0
8/6/2004 7:45,0,1,0,1,0,1,0,0,0,0
8/6/2004 8:00,0,1,0,1,0,1,0,0,0,0
8/6/2004 8:15,0,1,0,1,0,1,0,0,0,0
8/6/2004 8:30,0,1,0,1,0,1,0,0,0,0
8/6/2004 8:45,0,1,0,1,0,1,0,0,0,0
8/6/2004 9:00,0,1,0,1,0,1,0,0,0,0
8/6/2004 9:15,0,1,0,1,0,1,0,0,0,0
8/6/2004 9:30,0,1,0,1,0,1,0,0,0,0
8/6/2004 9:45,0,1,0,1,0,1,0,0,0,0
8/6/2004 10:00,0,1,0,1,0,1,0,0,0,0
8/6/2004 10:15,0,1,0,1,0,1,0,0,0,0
8/6/2004 10:30,0,1,0,1,0,1,0,0,0,0
8/6/2004 10:45,0,1,0,1,0,1,0,0,0,0
8/6/2004 11:00,0,1,0,1,0,1,0,0,0,0
8/6/2004 11:15,0,1,0,1,0,1,0,0,0,0
8/6/2004 11:30,0,1,0,1,0,1,0,0,0,0
8/6/2004 11:45,0,1,0,1,0,1,0,0,0,0
8/6/2004 12:00,0,1,0,1,0,1,0,0,0,0
8/6/2004 12:15,0,1,0,1,0,1,0,0,0,0
8/6/2004 12:30,0,1,0,1,0,1,0,0,0,0
8/6/2004 12:45,0,1,0,1,0,1,0,0,0,0
8/6/2004 13:00,0,1,0,1,0,1,0,0,0,0
8/6/2004 13:15,0,1,0,1,0,1,0,0,0,0
8/6/2004 13:30,0,1,0,1,0,1,0,0,0,0
8/6/2004 13:45,0,1,0,1,0,1,0,0,0,0
8/6/2004 14:00,0,1,0,1,0,1,0,0,0,0
8/6/2004 14:15,0,1,0,1,0,1,0,0,0,0
8/6/2004 14:30,0,1,0,1,0,1,0,0,0,0
8/6/2004 14:45,0,1,0,1,0,1,0,0,0,0
8/6/2004 15:00,0,1,0,1,0,1,0,0,0,0
8/6/2004 15:15,0,1,0,1,0,1,0,0,0,0
8/6/2004 15:30,0,1,0,1,0,1,0,0,0,0
8/6/2004 15:45,0,1,0,1,0,1,0,0,0,0
8/6/2004 16:00,0,1,0,1,0,1,0,0,0,0
8/6/2004 16:15,0,1,0,1,0,1,0,0,0,0
8/6/2004 16:30,0,1,0,1,0,1,0,0,0,0
8/6/2004 16:45,0,1,0,1,0,1,0,0,0,0
8/6/2004 17:00,0,1,0,1,0,1,0,0,0,0
8/6/2004 17:15,0,1,0,1,0,1,0,0,0,0
8/6/2004 17:30,0,1,0,1,0,1,0,0,0,0
8/6/2004 17:45,0,1,0,1,0,1,0,0,0,0
8/6/2004 18:00,0,1,0,1,0,1,0,0,0,0
8/6/2004 18:15,0,1,0,1,0,1,0,0,0,0
8/6/2004 18:30,0,1,0,1,0,1,0,0,0,0
8/6/2004 18:45,0,1,0,1,0,1,0,0,0,0
8/6/2004 19:00,0,1,0,1,0,1,0,0,0,0
8/6/2004 19:15,0,1,0,1,0,1,0,0,0,0
8/6/2004 19:30,0,1,0,1,0,1,0,0,0,0
8/6/2004 19:45,0,1,0,1,0,1,0,0,0,0
8/6/2004 20:00,0,1,0,1,0,1,0,0,0,0
8/6/2004 20:15,0,1,0,1,0,1,0,0,0,0
8/6/2004 20:30,0,1,0,1,0,1,0,0,0,0
8/6/2004 20:45,0,1,0,1,0,1,0,0,0,0
8/6/2004 21:00,0,1,0,1,0,1,0,0,0,0
8/6/2004 21:15,0,1,0,1,0,1,0,0,0,0
8/6/2004 21:30,0,1,0,1,0,1,0,0,0,0
8/6/2004 21:45,0,1,0,1,0,1,0,0,0,0
8/6/2004 22:00,0,1,0,1,0,1,0,0,0,0
8/6/2004 22:15,0,1,0,1,0,1,0,0,0,0
8/6/2004 22:30,0,1,0,1,0,1,0,0,0,0
8/6/2004 22:45,0,1,0,1,0,1,0,0,0,0
8/6/2004 23:00,0,1,0,1,0,1,0,0,0,0
8/6/2004 23:15,30.6,1,69,1,31.1,1,0,0,0,0
8/6/2004 23:30,33.3,1,57.6,1,30.9,1,0,0,0,0
8/6/2004 23:45,33.6,1,56.5,1,30.9,1,0,0,0,0
8/7/2004 0:00,33.6,1,56.4,1,30.9,1,0,0,0,0
8/7/2004 0:15,33.6,1,56.4,1,30.8,1,0,0,0,0
8/7/2004 0:30,33.6,1,56.5,1,30.7,1,0,0,0,0
8/7/2004 0:45,33.3,1,58,1,30.6,1,0,0,0,0
8/7/2004 1:00,33.4,1,44.6,1,30.5,1,0,0,0,0
8/7/2004 1:15,33.1,1,58.7,1,30.4,1,0,0,0,0
8/7/2004 1:30,33.3,1,57.5,1,30.3,1,0,0,0,0
8/7/2004 1:45,33,1,58.8,1,30.2,1,0,0,0,0
8/7/2004 2:00,33,1,58.8,1,30.1,1,0,0,0,0
8/7/2004 2:15,33.1,1,58.5,1,30.1,1,0,0,0,0
8/7/2004 2:30,33.3,1,57.5,1,30.1,1,0,0,0,0
8/7/2004 2:45,33.1,1,57.9,1,30,1,0,0,0,0
8/7/2004 3:00,32.7,1,58.6,1,29.9,1,0,0,0,0
8/7/2004 3:15,33.1,1,57.4,1,29.8,1,0,0,0,0
8/7/2004 3:30,33.1,1,57.2,1,29.8,1,0,0,0,0
8/7/2004 3:45,33.2,1,57.1,1,29.8,1,0,0,0,0
8/7/2004 4:00,33.1,1,44.6,1,29.8,1,0,0,0,0
8/7/2004 4:15,33,1,58.1,1,29.8,1,0,0,0,0
8/7/2004 4:30,33,1,58,1,29.8,1,0,0,0,0
8/7/2004 4:45,32.9,1,58,1,29.8,1,0,0,0,0
8/7/2004 5:00,32.9,1,58.4,1,29.7,1,0,0,0,0
8/7/2004 5:15,32.9,1,58.4,1,29.7,1,0,0,0,0
8/7/2004 5:30,32.8,1,58.6,1,29.7,1,0,0,0,0
8/7/2004 5:45,32.8,1,58.8,1,29.7,1,0,0,0,0
8/7/2004 6:00,32.7,1,59.8,1,29.7,1,0,0,0,0
8/7/2004 6:15,32.7,1,60.2,1,29.7,1,0,0,0,0
8/7/2004 6:30,32.3,1,61.5,1,29.7,1,0,0,0,0
8/7/2004 6:45,32.1,1,62.4,1,29.7,1,0,0,0,0
8/7/2004 7:00,32,1,62.4,1,29.8,1,0,0,0,0
8/7/2004 7:15,31.9,1,62.7,1,29.8,1,0,0,0,0
8/7/2004 7:30,32.1,1,62.4,1,29.9,1,0,0,0,0
8/7/2004 7:45,32.1,1,63,1,30,1,0,0,0,0
8/7/2004 8:00,32.2,1,62.1,1,30.1,1,0,0,0,0
8/7/2004 8:15,32.2,1,62.3,1,30.3,1,0,0,0,0
8/7/2004 8:30,32.3,1,61.7,1,30.4,1,0,0,0,0
8/7/2004 8:45,32.3,1,61.3,1,30.4,1,0,0,0,0
8/7/2004 9:00,32.2,1,62.1,1,30.5,1,0,0,0,0
8/7/2004 9:15,32.6,1,48.3,1,30.6,1,0,0,0,0
8/7/2004 9:30,32.6,1,61.5,1,30.7,1,0,0,0,0
8/7/2004 9:45,32.7,1,59.4,1,30.9,1,0,0,0,0
8/7/2004 10:00,32.8,1,60.2,1,31,1,0,0,0,0
8/7/2004 10:15,32.8,1,60.5,1,31.1,1,0,0,0,0
8/7/2004 10:30,32.8,1,60.2,1,31.3,1,0,0,0,0
8/7/2004 10:45,32.9,1,60.2,1,31.5,1,0,0,0,0
8/7/2004 11:00,33.2,1,59.2,1,31.8,1,0,0,0,0
8/7/2004 11:15,33,1,57.7,1,32,1,0,0,0,0
8/7/2004 11:30,33.2,1,58.6,1,32.2,1,0,0,0,0
8/7/2004 11:45,33.3,1,56.3,1,32.5,1,0,0,0,0
8/7/2004 12:00,33.4,1,56.8,1,32.6,1,0,0,0,0
8/7/2004 12:15,33.6,1,57.2,1,32.8,1,0,0,0,0
8/7/2004 12:30,33.6,1,58.6,1,32.8,1,0,0,0,0
8/7/2004 12:45,33.8,1,58.1,1,32.9,1,0,0,0,0
8/7/2004 13:00,33.9,1,57.9,1,33,1,0,0,0,0
8/7/2004 13:15,34,1,57.6,1,33.2,1,0,0,0,0
8/7/2004 13:30,34,1,56.9,1,33.2,1,0,0,0,0
8/7/2004 13:45,34.1,1,56.4,1,33.2,1,0,0,0,0
8/7/2004 14:00,34.1,1,55.9,1,33.2,1,0,0,0,0
8/7/2004 14:15,34.1,1,55.8,1,33.2,1,0,0,0,0
8/7/2004 14:30,34.2,1,56.1,1,33.2,1,0,0,0,0
8/7/2004 14:45,34.2,1,56,1,33.1,1,0,0,0,0
8/7/2004 15:00,34.1,1,56.1,1,33.1,1,0,0,0,0
8/7/2004 15:15,34.1,1,56,1,33,1,0,0,0,0
8/7/2004 15:30,34.1,1,55.9,1,33,1,0,0,0,0
8/7/2004 15:45,34.1,1,55.8,1,33,1,0,0,0,0
8/7/2004 16:00,34,1,56.1,1,32.9,1,0,0,0,0
8/7/2004 16:15,33.5,1,56.9,1,32.8,1,0,0,0,0
8/7/2004 16:30,33.4,1,56.8,1,32.7,1,0,0,0,0
8/7/2004 16:45,33.5,1,57.5,1,32.6,1,0,0,0,0
8/7/2004 17:00,33.4,1,50.8,1,32.4,1,0,0,0,0
8/7/2004 17:15,33.4,1,57.4,1,32.1,1,0,0,0,0
8/7/2004 17:30,33.3,1,57.3,1,31.9,1,0,0,0,0
8/7/2004 17:45,33.1,1,58,1,31.7,1,0,0,0,0
8/7/2004 18:00,32.7,1,58,1,31.4,1,0,0,0,0
8/7/2004 18:15,32.5,1,59.2,1,31.3,1,0,0,0,0
8/7/2004 18:30,32.5,1,58.6,1,31.1,1,0,0,0,0
8/7/2004 18:45,32.3,1,58.8,1,30.9,1,0,0,0,0